GW2849 Weather Reports


time (UTC)temp
C
wind
direction
speed
KPH
gust
KPH
rain 1hr
cm
rain 24hr
cm
rain mn
cm
humidity
%
barometer
mb
20260505111759 13 136 0.0 4.8 0.03 0.15 0.15 88 1008.3
20260505111501 13 146 1.6 4.8 0.03 0.15 0.15 88 1008.2
20260505111359 13 159 0.0 4.8 0.03 0.15 0.15 88 1008.2
20260505111159 13 155 1.6 1.6 0.03 0.15 0.15 88 1008.1
20260505111100 13 126 0.0 1.6 0.05 0.15 0.15 88 1008.2
20260505111000 13 159 0.0 1.6 0.05 0.15 0.15 88 1008.2
20260505110759 13 160 0.0 1.6 0.05 0.15 0.15 88 1008.2
20260505110700 13 160 0.0 1.6 0.05 0.15 0.15 88 1008.2
20260505110559 13 160 0.0 1.6 0.05 0.15 0.15 88 1008.2
20260505110459 13 160 0.0 1.6 0.05 0.15 0.15 88 1008.3
20260505110358 13 160 0.0 1.6 0.05 0.15 0.15 88 1008.3
20260505110259 13 148 0.0 0.0 0.08 0.15 0.15 88 1008.3
20260505110201 13 148 0.0 0.0 0.08 0.15 0.15 88 1008.4
20260505102158 14 86 0.0 1.6 0.13 0.13 0.13 84 1008.8
20260505102100 14 86 0.0 3.2 0.13 0.13 0.13 84 1008.8
20260505102001 14 86 0.0 3.2 0.13 0.13 0.13 84 1008.9
20260505101900 14 86 0.0 3.2 0.13 0.13 0.13 84 1008.9
20260505101700 14 102 0.0 3.2 0.13 0.13 0.13 84 1009.0
20260505101559 14 265 0.0 3.2 0.13 0.13 0.13 83 1009.0
20260505101459 14 348 0.0 3.2 0.13 0.13 0.13 83 1009.1
20260505101400 14 348 0.0 3.2 0.13 0.13 0.13 83 1009.1
20260505101300 14 338 0.0 3.2 0.13 0.13 0.13 83 1009.1
20260505101200 14 61 0.0 3.2 0.13 0.13 0.13 83 1009.1
20260505100959 15 329 0.0 3.2 0.10 0.10 0.10 82 1009.1
20260505100859 15 322 0.0 3.2 0.10 0.10 0.10 82 1009.3
20260505100759 15 292 0.0 3.2 0.10 0.10 0.10 82 1009.3
20260505100658 15 291 0.0 3.2 0.10 0.10 0.10 81 1009.4
20260505100601 15 309 0.0 3.2 0.10 0.10 0.10 81 1009.3
20260505100500 15 13 1.6 3.2 0.10 0.10 0.10 81 1009.3
20260505100359 15 342 1.6 3.2 0.10 0.10 0.10 80 1009.3
20260505100300 15 340 0.0 3.2 0.08 0.08 0.08 80 1009.3
20260505100201 15 346 1.6 3.2 0.08 0.08 0.08 80 1009.3
20260505100059 15 324 0.0 3.2 0.08 0.08 0.08 80 1009.4
20260505095759 15 23 1.6 6.4 0.05 0.05 0.05 79 1009.4
20260505095702 15 36 0.0 6.4 0.05 0.05 0.05 78 1009.4
20260505095600 15 36 0.0 6.4 0.05 0.05 0.05 78 1009.4
20260505095459 15 252 1.6 6.4 0.05 0.05 0.05 78 1009.3
20260505095400 15 221 3.2 6.4 0.05 0.05 0.05 77 1009.4
20260505095300 16 98 0.0 6.4 0.05 0.05 0.05 77 1009.3
20260505095201 16 153 1.6 6.4 0.03 0.03 0.03 77 1009.2
20260505095059 16 42 1.6 6.4 0.03 0.03 0.03 77 1009.2
20260505095000 16 282 0.0 6.4 0.03 0.03 0.03 76 1009.1
20260505094900 16 9 0.0 6.4 0.03 0.03 0.03 76 1009.2
20260505094800 16 331 0.0 8.0 0.03 0.03 0.03 75 1009.2
20260505094602 16 5 1.6 8.0 0.03 0.03 0.03 75 1009.2
20260505094400 16 342 3.2 8.0 0.00 0.00 0.00 74 1009.3
20260505094259 16 344 0.0 8.0 0.00 0.00 0.00 74 1009.2
20260505094203 17 280 0.0 8.0 0.00 0.00 0.00 72 1009.1
20260505094100 17 335 0.0 8.0 0.00 0.00 0.00 71 1009.1
20260505093959 17 17 0.0 11.3 0.00 0.00 0.00 70 1009.0
20260505093902 17 59 3.2 11.3 0.00 0.00 0.00 69 1009.0
20260505093800 17 309 1.6 11.3 0.00 0.00 0.00 68 1008.9
20260505093700 17 15 1.6 11.3 0.00 0.00 0.00 68 1008.8
20260505093602 17 223 0.0 11.3 0.00 0.00 0.00 67 1008.7
20260505093501 17 215 3.2 11.3 0.00 0.00 0.00 66 1008.6
20260505093201 17 212 3.2 11.3 0.00 0.00 0.00 65 1008.3
20260505093059 17 10 0.0 8.0 0.00 0.00 0.00 65 1008.2
20260505093000 17 196 0.0 11.3 0.00 0.00 0.00 65 1008.2
20260505092900 17 168 0.0 11.3 0.00 0.00 0.00 64 1008.2
20260505092801 17 224 0.0 12.9 0.00 0.00 0.00 64 1008.1
20260505092700 17 309 4.8 12.9 0.00 0.00 0.00 64 1008.1
20260505092600 17 256 0.0 12.9 0.00 0.00 0.00 64 1008.1
20260505092400 17 234 1.6 12.9 0.00 0.00 0.00 64 1008.1
20260505092258 17 189 4.8 12.9 0.00 0.00 0.00 63 1008.1
20260505092200 17 286 1.6 12.9 0.00 0.00 0.00 63 1008.1
20260505092100 17 200 3.2 12.9 0.00 0.00 0.00 64 1008.0
20260505092000 17 281 1.6 12.9 0.00 0.00 0.00 64 1007.9
20260505091859 17 196 3.2 14.5 0.00 0.00 0.00 63 1007.9
20260505091800 17 161 6.4 14.5 0.00 0.00 0.00 63 1008.0
20260505091659 17 107 3.2 16.1 0.00 0.00 0.00 63 1007.9
20260505091559 17 192 1.6 16.1 0.00 0.00 0.00 63 1007.9
20260505091300 17 194 4.8 16.1 0.00 0.00 0.00 64 1007.9
20260505091159 17 202 0.0 16.1 0.00 0.00 0.00 63 1007.9
20260505091100 17 219 1.6 16.1 0.00 0.00 0.00 63 1007.9
20260505091001 17 170 1.6 16.1 0.00 0.00 0.00 63 1007.9
20260505090902 17 182 3.2 16.1 0.00 0.00 0.00 63 1007.8
20260505090703 17 148 4.8 12.9 0.00 0.00 0.00 63 1007.8
20260505090600 17 231 1.6 12.9 0.00 0.00 0.00 63 1007.7
20260505090500 17 309 4.8 12.9 0.00 0.00 0.00 63 1007.8
20260505090400 17 302 1.6 12.9 0.00 0.00 0.00 63 1007.6
20260505090259 17 130 0.0 12.9 0.00 0.00 0.00 63 1007.6
20260505090159 17 207 0.0 12.9 0.00 0.00 0.00 63 1007.6
20260505090100 17 193 0.0 12.9 0.00 0.00 0.00 63 1007.6
20260505085959 17 225 0.0 12.9 0.00 0.00 0.00 63 1007.4
20260505085859 17 217 4.8 12.9 0.00 0.00 0.00 63 1007.5
20260505085801 17 337 0.0 11.3 0.00 0.00 0.00 63 1007.5
20260505085559 17 234 0.0 11.3 0.00 0.00 0.00 63 1007.6
20260505085501 17 200 4.8 9.7 0.00 0.00 0.00 63 1007.4
20260505085400 17 209 4.8 9.7 0.00 0.00 0.00 63 1007.4
20260505085159 17 190 0.0 9.7 0.00 0.00 0.00 63 1007.4
20260505084959 17 289 1.6 9.7 0.00 0.00 0.00 63 1007.3
20260505084858 17 238 1.6 9.7 0.00 0.00 0.00 63 1007.3
20260505084759 17 213 4.8 9.7 0.00 0.00 0.00 62 1007.2
20260505084700 17 150 3.2 8.0 0.00 0.00 0.00 62 1007.2
20260505084459 17 159 0.0 6.4 0.00 0.00 0.00 63 1007.1
20260505084401 17 148 4.8 6.4 0.00 0.00 0.00 62 1007.2
20260505084259 17 194 3.2 9.7 0.00 0.00 0.00 63 1007.3
20260505084100 17 118 4.8 11.3 0.00 0.00 0.00 62 1007.3
20260505083959 17 199 0.0 11.3 0.00 0.00 0.00 62 1007.2
20260505083859 17 222 1.6 11.3 0.00 0.00 0.00 62 1007.3
20260505083801 17 169 3.2 11.3 0.00 0.00 0.00 62 1007.2
20260505083659 17 227 3.2 11.3 0.00 0.00 0.00 62 1007.2
20260505083600 17 155 1.6 11.3 0.00 0.00 0.00 62 1007.1
20260505083459 17 315 0.0 11.3 0.00 0.00 0.00 62 1007.2
20260505083359 17 243 4.8 11.3 0.00 0.00 0.00 62 1007.2
20260505083259 17 302 8.0 8.0 0.00 0.00 0.00 62 1007.2
20260505083159 17 202 3.2 8.0 0.00 0.00 0.00 62 1007.2
20260505083058 17 226 1.6 11.3 0.00 0.00 0.00 62 1007.2
20260505082959 17 215 3.2 11.3 0.00 0.00 0.00 62 1007.2
20260505082900 17 190 3.2 11.3 0.00 0.00 0.00 62 1007.1
20260505082759 17 186 4.8 11.3 0.00 0.00 0.00 62 1007.2
20260505082658 17 5 3.2 11.3 0.00 0.00 0.00 62 1007.1
20260505082559 17 211 8.0 11.3 0.00 0.00 0.00 62 1007.1
20260505082459 17 217 1.6 11.3 0.00 0.00 0.00 62 1007.1
20260505082400 17 210 1.6 12.9 0.00 0.00 0.00 62 1007.0
20260505082159 17 170 6.4 12.9 0.00 0.00 0.00 61 1007.0
20260505082100 17 196 8.0 12.9 0.00 0.00 0.00 62 1007.0
20260505082000 17 218 3.2 12.9 0.00 0.00 0.00 61 1006.9
20260505081859 17 205 3.2 12.9 0.00 0.00 0.00 62 1006.9
20260505081759 17 223 1.6 12.9 0.00 0.00 0.00 62 1006.8
20260505081659 17 245 1.6 12.9 0.00 0.00 0.00 62 1006.8
20260505081559 17 182 9.7 11.3 0.00 0.00 0.00 62 1006.8
20260505081459 17 208 0.0 11.3 0.00 0.00 0.00 62 1006.7
20260505081401 17 288 0.0 11.3 0.00 0.00 0.00 61 1006.6
20260505081259 17 181 3.2 11.3 0.00 0.00 0.00 62 1006.7
20260505081200 17 193 0.0 11.3 0.00 0.00 0.00 61 1006.6
20260505081100 17 204 6.4 11.3 0.00 0.00 0.00 62 1006.6
20260505080859 17 236 1.6 11.3 0.00 0.00 0.00 62 1006.5
20260505080800 17 192 1.6 14.5 0.00 0.00 0.00 61 1006.6
20260505080701 17 212 3.2 14.5 0.00 0.00 0.00 61 1006.6
20260505080559 17 188 6.4 14.5 0.00 0.00 0.00 61 1006.6
20260505080459 17 219 3.2 14.5 0.00 0.00 0.00 62 1006.6
20260505080358 17 244 1.6 14.5 0.00 0.00 0.00 61 1006.6
20260505080259 17 210 3.2 14.5 0.00 0.00 0.00 61 1006.6
20260505080159 17 196 1.6 14.5 0.00 0.00 0.00 61 1006.6
20260505080003 18 158 8.0 14.5 0.00 0.00 0.00 61 1006.6
20260505075859 17 183 9.7 11.3 0.00 0.00 0.00 61 1006.6
20260505075800 17 204 0.0 11.3 0.00 0.00 0.00 62 1006.6
20260505075659 17 210 3.2 11.3 0.00 0.00 0.00 62 1006.6
20260505075559 18 202 0.0 11.3 0.00 0.00 0.00 61 1006.6
20260505075459 18 225 4.8 11.3 0.00 0.00 0.00 61 1006.7
20260505075401 18 204 8.0 11.3 0.00 0.00 0.00 61 1006.6
20260505075259 18 173 3.2 11.3 0.00 0.00 0.00 61 1006.6
20260505075159 18 86 3.2 11.3 0.00 0.00 0.00 61 1006.6
20260505074959 18 148 0.0 11.3 0.00 0.00 0.00 61 1006.7
20260505074859 18 132 0.0 14.5 0.00 0.00 0.00 61 1006.7
20260505074759 18 217 1.6 14.5 0.00 0.00 0.00 61 1006.7
20260505074701 18 171 3.2 14.5 0.00 0.00 0.00 61 1006.7
20260505074559 18 167 4.8 14.5 0.00 0.00 0.00 61 1006.7
20260505074401 18 227 4.8 14.5 0.00 0.00 0.00 61 1006.7
20260505074259 18 243 0.0 14.5 0.00 0.00 0.00 60 1006.7
20260505074159 18 273 3.2 14.5 0.00 0.00 0.00 60 1006.6
20260505074101 18 277 4.8 14.5 0.00 0.00 0.00 60 1006.7
20260505073959 18 117 0.0 14.5 0.00 0.00 0.00 61 1006.5
20260505073859 18 205 4.8 17.7 0.00 0.00 0.00 61 1006.6
20260505073759 18 207 4.8 17.7 0.00 0.00 0.00 60 1006.5
20260505073659 18 332 6.4 17.7 0.00 0.00 0.00 60 1006.5
20260505073559 18 180 0.0 17.7 0.00 0.00 0.00 60 1006.4
20260505073500 18 211 0.0 17.7 0.00 0.00 0.00 60 1006.4
20260505073259 18 180 4.8 17.7 0.00 0.00 0.00 60 1006.4
20260505073158 18 275 3.2 17.7 0.00 0.00 0.00 60 1006.4
20260505073059 18 181 3.2 17.7 0.00 0.00 0.00 60 1006.4
20260505072959 18 173 4.8 14.5 0.00 0.00 0.00 60 1006.3
20260505072901 18 161 8.0 12.9 0.00 0.00 0.00 60 1006.4
20260505072758 18 210 3.2 14.5 0.00 0.00 0.00 60 1006.3
20260505072658 18 165 1.6 14.5 0.00 0.00 0.00 60 1006.3
20260505072459 18 229 3.2 14.5 0.00 0.00 0.00 60 1006.2
20260505072359 18 193 4.8 14.5 0.00 0.00 0.00 60 1006.2
20260505072259 18 252 8.0 14.5 0.00 0.00 0.00 60 1006.2
20260505072159 18 203 3.2 14.5 0.00 0.00 0.00 60 1006.3
20260505072059 18 183 1.6 16.1 0.00 0.00 0.00 60 1006.2
20260505071958 18 311 3.2 16.1 0.00 0.00 0.00 59 1006.3
20260505071901 18 246 11.3 16.1 0.00 0.00 0.00 59 1006.1
20260505071800 18 140 4.8 16.1 0.00 0.00 0.00 59 1006.1
20260505071559 18 138 6.4 16.1 0.00 0.00 0.00 60 1006.1
20260505071459 18 213 4.8 16.1 0.00 0.00 0.00 59 1006.1
20260505071359 18 186 4.8 16.1 0.00 0.00 0.00 59 1006.1
20260505071259 18 208 1.6 16.1 0.00 0.00 0.00 59 1006.1
20260505071158 18 201 14.5 17.7 0.00 0.00 0.00 60 1006.1
20260505071100 18 284 3.2 14.5 0.00 0.00 0.00 59 1006.2
20260505071000 18 134 1.6 14.5 0.00 0.00 0.00 59 1006.1
20260505070900 18 21 1.6 14.5 0.00 0.00 0.00 59 1006.2
20260505070658 18 222 3.2 14.5 0.00 0.00 0.00 59 1006.2
20260505070559 18 325 3.2 14.5 0.00 0.00 0.00 59 1006.2
20260505070459 18 204 8.0 14.5 0.00 0.00 0.00 59 1006.3
20260505070300 18 213 4.8 12.9 0.00 0.00 0.00 59 1006.3
20260505070158 18 96 0.0 14.5 0.00 0.00 0.00 59 1006.2
20260505070059 18 185 3.2 16.1 0.00 0.00 0.00 58 1006.4
20260505070003 18 298 8.0 16.1 0.00 0.00 0.00 59 1006.4
20260505065858 18 198 4.8 16.1 0.00 0.00 0.00 59 1006.3
20260505065758 18 161 0.0 16.1 0.00 0.00 0.00 58 1006.3
20260505065659 18 194 6.4 20.9 0.00 0.00 0.00 59 1006.3
20260505065600 18 250 0.0 20.9 0.00 0.00 0.00 59 1006.3
20260505065458 18 202 4.8 20.9 0.00 0.00 0.00 58 1006.3
20260505065400 18 170 3.2 20.9 0.00 0.00 0.00 59 1006.4
20260505065159 18 207 16.1 20.9 0.00 0.00 0.00 58 1006.3
20260505065059 18 236 4.8 20.9 0.00 0.00 0.00 58 1006.3
20260505065000 18 209 4.8 20.9 0.00 0.00 0.00 58 1006.4
20260505064901 18 222 3.2 20.9 0.00 0.00 0.00 58 1006.4
20260505064759 18 199 12.9 16.1 0.00 0.00 0.00 58 1006.4
20260505064659 18 69 0.0 14.5 0.00 0.00 0.00 58 1006.4
20260505064559 18 189 6.4 14.5 0.00 0.00 0.00 58 1006.4
20260505064458 18 183 6.4 14.5 0.00 0.00 0.00 58 1006.3
20260505064359 18 161 8.0 14.5 0.00 0.00 0.00 58 1006.4
20260505064159 18 219 4.8 14.5 0.00 0.00 0.00 59 1006.4
20260505064059 18 142 4.8 14.5 0.00 0.00 0.00 58 1006.4
20260505063959 18 197 9.7 14.5 0.00 0.00 0.00 58 1006.5
20260505063859 18 192 4.8 16.1 0.00 0.00 0.00 59 1006.3
20260505063758 18 167 1.6 16.1 0.00 0.00 0.00 58 1006.4
20260505063659 18 157 3.2 16.1 0.00 0.00 0.00 58 1006.4
20260505063559 18 173 3.2 16.1 0.00 0.00 0.00 58 1006.4
20260505063500 18 211 4.8 16.1 0.00 0.00 0.00 58 1006.4
20260505063402 18 229 3.2 17.7 0.00 0.00 0.00 58 1006.5
20260505063259 18 198 6.4 17.7 0.00 0.00 0.00 58 1006.5
20260505063158 18 314 6.4 17.7 0.00 0.00 0.00 58 1006.3
20260505063000 18 214 3.2 17.7 0.00 0.00 0.00 58 1006.4
20260505062859 18 103 3.2 17.7 0.00 0.00 0.00 58 1006.4
20260505062800 18 313 3.2 17.7 0.00 0.00 0.00 58 1006.5
20260505062559 18 188 3.2 17.7 0.00 0.00 0.00 58 1006.5
20260505062500 18 143 6.4 19.3 0.00 0.00 0.00 58 1006.5
20260505062400 18 208 3.2 19.3 0.00 0.00 0.00 58 1006.5
20260505062159 18 144 9.7 19.3 0.00 0.00 0.00 58 1006.4
20260505062100 18 192 4.8 19.3 0.00 0.00 0.00 58 1006.5
20260505061859 18 74 4.8 19.3 0.00 0.00 0.00 58 1006.4
20260505061801 18 221 8.0 16.1 0.00 0.00 0.00 58 1006.5
20260505061700 18 105 3.2 16.1 0.00 0.00 0.00 58 1006.6
20260505061600 18 188 8.0 16.1 0.00 0.00 0.00 59 1006.4
20260505061459 18 122 8.0 16.1 0.00 0.00 0.00 58 1006.5
20260505061300 18 201 3.2 16.1 0.00 0.00 0.00 58 1006.5
20260505061200 18 190 6.4 16.1 0.00 0.00 0.00 58 1006.4
20260505060958 18 197 4.8 16.1 0.00 0.00 0.00 58 1006.3
20260505060900 18 186 12.9 14.5 0.00 0.00 0.00 58 1006.4
20260505060759 18 235 1.6 14.5 0.00 0.00 0.00 58 1006.3
20260505060700 18 191 4.8 14.5 0.00 0.00 0.00 58 1006.4
20260505060600 18 218 6.4 14.5 0.00 0.00 0.00 58 1006.3
20260505060459 18 187 4.8 14.5 0.00 0.00 0.00 58 1006.4
20260505060300 18 258 3.2 16.1 0.00 0.00 0.00 59 1006.3
20260505060159 18 186 1.6 16.1 0.00 0.00 0.00 58 1006.2
20260505060059 18 232 1.6 16.1 0.00 0.00 0.00 58 1006.2
20260505055958 18 138 1.6 16.1 0.00 0.00 0.00 58 1006.2
20260505055858 18 207 8.0 16.1 0.00 0.00 0.00 58 1006.2
20260505055757 18 37 1.6 16.1 0.00 0.00 0.00 59 1006.2
20260505055657 18 209 1.6 16.1 0.00 0.00 0.00 59 1006.2
20260505055557 18 138 4.8 16.1 0.00 0.00 0.00 58 1006.1
20260505055458 18 247 4.8 16.1 0.00 0.00 0.00 58 1006.0
20260505055359 18 252 0.0 16.1 0.00 0.00 0.00 59 1006.1
20260505055200 18 225 8.0 16.1 0.00 0.00 0.00 58 1006.1
20260505055058 18 189 3.2 17.7 0.00 0.00 0.00 58 1006.1
20260505054958 18 188 4.8 17.7 0.00 0.00 0.00 58 1006.0
20260505054659 18 292 0.0 17.7 0.00 0.00 0.00 58 1006.0
20260505054558 18 209 4.8 17.7 0.00 0.00 0.00 58 1006.0
20260505054457 18 101 4.8 17.7 0.00 0.00 0.00 59 1006.0
20260505054358 18 275 1.6 12.9 0.00 0.00 0.00 58 1006.0
20260505054259 18 248 4.8 12.9 0.00 0.00 0.00 58 1006.0
20260505054157 18 216 4.8 12.9 0.00 0.00 0.00 59 1006.0
20260505054058 18 224 3.2 12.9 0.00 0.00 0.00 58 1006.0
20260505053958 18 223 12.9 14.5 0.00 0.00 0.00 58 1006.0
20260505053857 18 157 0.0 14.5 0.00 0.00 0.00 58 1005.9
20260505053657 18 277 0.0 14.5 0.00 0.00 0.00 58 1006.0
20260505053557 18 190 3.2 16.1 0.00 0.00 0.00 58 1006.0
20260505053500 18 203 4.8 16.1 0.00 0.00 0.00 58 1006.0
20260505053357 18 179 4.8 16.1 0.00 0.00 0.00 58 1006.0
20260505053258 18 90 1.6 16.1 0.00 0.00 0.00 58 1006.0
20260505053158 18 163 0.0 16.1 0.00 0.00 0.00 58 1006.0
20260505053057 18 152 1.6 16.1 0.00 0.00 0.00 58 1005.9
20260505052958 18 213 6.4 16.1 0.00 0.00 0.00 58 1006.0
20260505052857 18 217 4.8 16.1 0.00 0.00 0.00 58 1006.0
20260505052758 18 137 4.8 19.3 0.00 0.00 0.00 58 1006.0
20260505052658 18 192 0.0 12.9 0.00 0.00 0.00 58 1005.9
20260505052559 18 265 4.8 12.9 0.00 0.00 0.00 59 1005.9
20260505052459 18 226 3.2 12.9 0.00 0.00 0.00 58 1006.0
20260505052358 18 254 1.6 12.9 0.00 0.00 0.00 58 1006.0
20260505052257 18 141 0.0 12.9 0.00 0.00 0.00 58 1006.0
20260505052159 19 175 3.2 14.5 0.00 0.00 0.00 58 1005.9
20260505051958 19 67 0.0 14.5 0.00 0.00 0.00 58 1006.0
20260505051758 19 159 0.0 14.5 0.00 0.00 0.00 58 1006.0
20260505051658 19 217 0.0 14.5 0.00 0.00 0.00 58 1006.0
20260505051557 19 192 4.8 14.5 0.00 0.00 0.00 58 1006.0
20260505051459 19 152 3.2 14.5 0.00 0.00 0.00 57 1006.0
20260505051359 19 236 3.2 16.1 0.00 0.00 0.00 57 1006.0
20260505051159 19 207 4.8 14.5 0.00 0.00 0.00 57 1006.0
20260505051059 19 121 4.8 14.5 0.00 0.00 0.00 58 1006.0
20260505050757 19 181 3.2 14.5 0.00 0.00 0.00 57 1006.1
20260505050701 19 300 12.9 14.5 0.00 0.00 0.00 57 1006.1
20260505050357 19 348 1.6 14.5 0.00 0.00 0.00 57 1006.1
20260505050258 19 221 6.4 14.5 0.00 0.00 0.00 57 1006.0
20260505050158 19 209 3.2 14.5 0.00 0.00 0.00 57 1006.1
20260505041702 19 167 8.0 17.7 0.00 0.00 0.00 58 1006.6
20260505041602 19 221 1.6 17.7 0.00 0.00 0.00 58 1006.6
20260505041501 19 346 0.0 17.7 0.00 0.00 0.00 58 1006.6
20260505041301 19 104 4.8 17.7 0.00 0.00 0.00 58 1006.6
20260505041203 19 202 3.2 17.7 0.00 0.00 0.00 58 1006.6
20260505041103 19 182 4.8 17.7 0.00 0.00 0.00 58 1006.6
20260505041002 19 220 0.0 12.9 0.00 0.00 0.00 58 1006.6
20260505040903 19 170 3.2 14.5 0.00 0.00 0.00 58 1006.6
20260505040802 19 158 1.6 14.5 0.00 0.00 0.00 58 1006.5
20260505040702 19 200 3.2 14.5 0.00 0.00 0.00 58 1006.6
20260505040303 20 299 8.0 14.5 0.00 0.00 0.00 58 1006.6
20260505040201 20 275 1.6 14.5 0.00 0.00 0.00 58 1006.6
20260505040001 19 198 0.0 16.1 0.00 0.00 0.00 58 1006.8
20260505035901 19 236 0.0 16.1 0.00 0.00 0.00 58 1006.7
20260505035800 19 205 4.8 16.1 0.00 0.00 0.00 58 1006.7
20260505035701 19 224 0.0 16.1 0.00 0.00 0.00 58 1006.7
20260505035602 20 193 6.4 16.1 0.00 0.00 0.00 58 1006.7
20260505035401 19 197 3.2 16.1 0.00 0.00 0.00 58 1006.8
20260505035301 19 169 1.6 16.1 0.00 0.00 0.00 58 1006.7
20260505035101 19 184 14.5 14.5 0.00 0.00 0.00 59 1006.8
20260505035001 19 189 1.6 12.9 0.00 0.00 0.00 58 1006.7
20260505034901 19 284 1.6 12.9 0.00 0.00 0.00 59 1006.7
20260505034701 19 190 0.0 12.9 0.00 0.00 0.00 59 1006.8
20260505034602 19 200 4.8 12.9 0.00 0.00 0.00 58 1006.7
20260505034500 19 230 1.6 12.9 0.00 0.00 0.00 58 1006.7
20260505034404 19 209 6.4 12.9 0.00 0.00 0.00 59 1006.6
20260505034300 19 276 1.6 12.9 0.00 0.00 0.00 59 1006.7
20260505034202 19 250 1.6 12.9 0.00 0.00 0.00 59 1006.6
20260505034101 19 311 4.8 12.9 0.00 0.00 0.00 58 1006.7
20260505034000 19 207 3.2 12.9 0.00 0.00 0.00 58 1006.7
20260505033800 19 220 3.2 9.7 0.00 0.00 0.00 59 1006.6
20260505033600 19 171 1.6 9.7 0.00 0.00 0.00 58 1006.6
20260505033500 19 223 1.6 9.7 0.00 0.00 0.00 59 1006.6
20260505033403 19 259 3.2 9.7 0.00 0.00 0.00 58 1006.6
20260505033301 19 215 3.2 9.7 0.00 0.00 0.00 58 1006.6
20260505033202 19 187 8.0 12.9 0.00 0.00 0.00 58 1006.7
20260505033103 19 162 0.0 12.9 0.00 0.00 0.00 59 1006.7
20260505033001 20 238 0.0 12.9 0.00 0.00 0.00 58 1006.7
20260505032900 20 217 4.8 12.9 0.00 0.00 0.00 58 1006.7
20260505032800 20 209 3.2 12.9 0.00 0.00 0.00 58 1006.7
20260505032700 20 213 3.2 12.9 0.00 0.00 0.00 58 1006.6
20260505032602 20 234 6.4 12.9 0.00 0.00 0.00 58 1006.6
20260505032500 20 221 3.2 12.9 0.00 0.00 0.00 58 1006.6
20260505032401 20 182 1.6 12.9 0.00 0.00 0.00 58 1006.6
20260505032304 20 207 3.2 9.7 0.00 0.00 0.00 58 1006.7
20260505032201 20 219 6.4 9.7 0.00 0.00 0.00 58 1006.7
20260505032101 20 317 0.0 9.7 0.00 0.00 0.00 58 1006.6
20260505032000 20 326 3.2 9.7 0.00 0.00 0.00 59 1006.7
20260505031901 20 325 0.0 9.7 0.00 0.00 0.00 58 1006.7
20260505031801 20 198 0.0 9.7 0.00 0.00 0.00 58 1006.7
20260505031701 20 269 0.0 9.7 0.00 0.00 0.00 58 1006.6
20260505031601 20 186 0.0 9.7 0.00 0.00 0.00 58 1006.7
20260505031501 20 188 1.6 9.7 0.00 0.00 0.00 58 1006.7
20260505031402 20 204 4.8 9.7 0.00 0.00 0.00 58 1006.6
20260505031300 20 322 3.2 9.7 0.00 0.00 0.00 58 1006.6
20260505031201 20 244 0.0 9.7 0.00 0.00 0.00 58 1006.6
20260505031101 20 225 4.8 9.7 0.00 0.00 0.00 58 1006.7
20260505031000 20 212 1.6 9.7 0.00 0.00 0.00 59 1006.7
20260505030900 20 234 0.0 12.9 0.00 0.00 0.00 58 1006.6
20260505030802 20 217 3.2 12.9 0.00 0.00 0.00 59 1006.6
20260505030700 20 211 4.8 12.9 0.00 0.00 0.00 58 1006.6
20260505030601 20 5 1.6 12.9 0.00 0.00 0.00 59 1006.6
20260505030501 20 235 1.6 12.9 0.00 0.00 0.00 58 1006.6
20260505030401 20 248 3.2 12.9 0.00 0.00 0.00 58 1006.6
20260505030302 20 235 1.6 12.9 0.00 0.00 0.00 59 1006.6
20260505030200 20 213 3.2 12.9 0.00 0.00 0.00 59 1006.6
20260505030101 20 173 0.0 12.9 0.00 0.00 0.00 58 1006.5
20260505025901 20 195 8.0 9.7 0.00 0.00 0.00 59 1006.4
20260505025703 20 159 0.0 9.7 0.00 0.00 0.00 58 1006.4
20260505025602 20 181 1.6 9.7 0.00 0.00 0.00 59 1006.4
20260505025501 20 138 3.2 9.7 0.00 0.00 0.00 58 1006.4
20260505025401 20 131 3.2 9.7 0.00 0.00 0.00 58 1006.4
20260505025301 20 167 4.8 8.0 0.00 0.00 0.00 59 1006.4
20260505025201 20 219 1.6 11.3 0.00 0.00 0.00 58 1006.3
20260505025102 20 269 0.0 11.3 0.00 0.00 0.00 59 1006.3
20260505025002 20 198 1.6 11.3 0.00 0.00 0.00 58 1006.3
20260505024801 20 182 0.0 11.3 0.00 0.00 0.00 58 1006.3
20260505024703 20 194 3.2 11.3 0.00 0.00 0.00 58 1006.3
20260505024601 20 174 3.2 11.3 0.00 0.00 0.00 58 1006.3
20260505024502 20 226 6.4 11.3 0.00 0.00 0.00 58 1006.3
20260505024400 20 95 1.6 11.3 0.00 0.00 0.00 58 1006.3
20260505024301 20 169 6.4 11.3 0.00 0.00 0.00 58 1006.3
20260505024201 20 342 0.0 8.0 0.00 0.00 0.00 59 1006.3
20260505024102 20 349 3.2 8.0 0.00 0.00 0.00 59 1006.3
20260505023902 20 215 0.0 8.0 0.00 0.00 0.00 59 1006.2
20260505023802 20 215 3.2 9.7 0.00 0.00 0.00 58 1006.1
20260505023702 20 163 0.0 9.7 0.00 0.00 0.00 58 1006.1
20260505023603 20 76 3.2 9.7 0.00 0.00 0.00 58 1006.2
20260505023402 20 145 1.6 14.5 0.00 0.00 0.00 58 1006.2
20260505023302 20 271 0.0 14.5 0.00 0.00 0.00 58 1006.2
20260505023202 20 211 1.6 14.5 0.00 0.00 0.00 58 1006.3
20260505023102 20 254 3.2 14.5 0.00 0.00 0.00 58 1006.2
20260505023004 20 208 0.0 14.5 0.00 0.00 0.00 58 1006.3
20260505022802 20 232 1.6 14.5 0.00 0.00 0.00 58 1006.1
20260505022703 20 210 4.8 14.5 0.00 0.00 0.00 58 1006.2
20260505022601 20 153 3.2 16.1 0.00 0.00 0.00 58 1006.1
20260505022402 20 265 1.6 8.0 0.00 0.00 0.00 58 1006.2
20260505022301 20 224 3.2 8.0 0.00 0.00 0.00 58 1006.1
20260505022201 20 224 0.0 8.0 0.00 0.00 0.00 58 1006.1
20260505022002 20 182 0.0 8.0 0.00 0.00 0.00 58 1006.1
20260505021801 20 242 0.0 9.7 0.00 0.00 0.00 58 1006.1
20260505021703 20 211 0.0 9.7 0.00 0.00 0.00 58 1006.0
20260505021601 20 202 1.6 9.7 0.00 0.00 0.00 58 1006.0
20260505021503 20 229 4.8 9.7 0.00 0.00 0.00 58 1006.0
20260505021401 20 205 1.6 9.7 0.00 0.00 0.00 58 1006.1
20260505021300 20 236 3.2 9.7 0.00 0.00 0.00 58 1005.9
20260505021202 20 292 1.6 9.7 0.00 0.00 0.00 58 1006.0
20260505021101 20 120 1.6 9.7 0.00 0.00 0.00 58 1006.0
20260505021000 20 180 8.0 11.3 0.00 0.00 0.00 58 1005.9
20260505020902 20 195 0.0 9.7 0.00 0.00 0.00 58 1005.9
20260505020801 20 192 0.0 9.7 0.00 0.00 0.00 58 1005.9
20260505020603 20 98 9.7 9.7 0.00 0.00 0.00 58 1005.9
20260505020401 20 321 3.2 6.4 0.00 0.00 0.00 58 1006.0
20260505020301 20 355 0.0 6.4 0.00 0.00 0.00 58 1005.9
20260505020201 20 355 0.0 6.4 0.00 0.00 0.00 58 1005.9
20260505020004 20 252 0.0 6.4 0.00 0.00 0.00 58 1005.9
20260505015801 20 207 3.2 6.4 0.00 0.00 0.00 58 1005.7
20260505015701 20 173 4.8 6.4 0.00 0.00 0.00 57 1005.7
20260505015601 20 206 0.0 6.4 0.00 0.00 0.00 57 1005.7
20260505015502 20 215 0.0 6.4 0.00 0.00 0.00 58 1005.7
20260505015401 20 190 6.4 6.4 0.00 0.00 0.00 58 1005.6
20260505015206 20 236 0.0 6.4 0.00 0.00 0.00 57 1005.6
20260505015101 20 224 3.2 6.4 0.00 0.00 0.00 57 1005.6
20260505015001 20 148 0.0 4.8 0.00 0.00 0.00 57 1005.6
20260505014901 20 74 0.0 4.8 0.00 0.00 0.00 57 1005.5
20260505014801 20 192 0.0 4.8 0.00 0.00 0.00 57 1005.5
20260505014703 20 192 0.0 8.0 0.00 0.00 0.00 57 1005.5
20260505014604 20 238 0.0 8.0 0.00 0.00 0.00 57 1005.5
20260505014501 20 85 0.0 8.0 0.00 0.00 0.00 57 1005.5
20260505014402 20 108 0.0 8.0 0.00 0.00 0.00 58 1005.5
20260505014301 20 107 3.2 8.0 0.00 0.00 0.00 57 1005.5
20260505014204 20 180 0.0 8.0 0.00 0.00 0.00 58 1005.5
20260505014101 20 171 0.0 8.0 0.00 0.00 0.00 57 1005.6
20260505014002 20 172 0.0 8.0 0.00 0.00 0.00 57 1005.5
20260505013901 20 231 4.8 8.0 0.00 0.00 0.00 57 1005.5
20260505013802 20 179 0.0 11.3 0.00 0.00 0.00 57 1005.6
20260505013702 20 150 0.0 11.3 0.00 0.00 0.00 57 1005.6
20260505013600 20 169 8.0 11.3 0.00 0.00 0.00 57 1005.6
20260505013501 20 163 1.6 11.3 0.00 0.00 0.00 58 1005.6
20260505013402 20 201 3.2 11.3 0.00 0.00 0.00 57 1005.6
20260505013300 20 158 0.0 11.3 0.00 0.00 0.00 58 1005.5
20260505013104 20 155 0.0 11.3 0.00 0.00 0.00 58 1005.5
20260505013002 20 291 1.6 11.3 0.00 0.00 0.00 58 1005.4
20260505012902 20 323 6.4 9.7 0.00 0.00 0.00 58 1005.5
20260505012802 20 349 3.2 9.7 0.00 0.00 0.00 58 1005.5
20260505012603 20 154 0.0 9.7 0.00 0.00 0.00 58 1005.5
20260505012502 20 132 4.8 9.7 0.00 0.00 0.00 58 1005.5
20260505012401 20 170 0.0 3.2 0.00 0.00 0.00 58 1005.4
20260505012304 20 121 0.0 3.2 0.00 0.00 0.00 58 1005.5
20260505012201 20 119 0.0 3.2 0.00 0.00 0.00 58 1005.5
20260505012101 20 140 0.0 3.2 0.00 0.00 0.00 57 1005.4
20260505012001 20 193 0.0 3.2 0.00 0.00 0.00 57 1005.4
20260505011904 20 192 0.0 1.6 0.00 0.00 0.00 58 1005.4
20260505011801 20 193 0.0 1.6 0.00 0.00 0.00 57 1005.5
20260505011702 20 193 0.0 3.2 0.00 0.00 0.00 57 1005.5
20260505011602 20 167 0.0 3.2 0.00 0.00 0.00 57 1005.5
20260505011506 20 71 0.0 3.2 0.00 0.00 0.00 57 1005.4
20260505011401 21 115 0.0 3.2 0.00 0.00 0.00 57 1005.5
20260505011302 21 115 0.0 3.2 0.00 0.00 0.00 57 1005.4
20260505011101 21 130 1.6 3.2 0.00 0.00 0.00 57 1005.4
20260505011003 21 269 0.0 3.2 0.00 0.00 0.00 57 1005.4
20260505010901 21 82 0.0 3.2 0.00 0.00 0.00 57 1005.4
20260505010802 21 107 3.2 3.2 0.00 0.00 0.00 57 1005.4
20260505010701 21 227 0.0 8.0 0.00 0.00 0.00 57 1005.4
20260505010503 21 296 0.0 8.0 0.00 0.00 0.00 56 1005.4
20260505010402 21 209 0.0 8.0 0.00 0.00 0.00 56 1005.4
20260505010302 21 209 0.0 8.0 0.00 0.00 0.00 56 1005.4
20260505010201 21 209 0.0 8.0 0.00 0.00 0.00 56 1005.4
20260505010005 21 196 0.0 8.0 0.00 0.00 0.00 56 1005.4
20260505005903 21 153 3.2 8.0 0.00 0.00 0.00 56 1005.3
20260505005801 21 123 1.6 8.0 0.00 0.00 0.00 56 1005.3
20260505005701 21 200 1.6 8.0 0.00 0.00 0.00 55 1005.3
20260505005601 21 217 3.2 11.3 0.00 0.00 0.00 56 1005.5
20260505005501 21 153 1.6 11.3 0.00 0.00 0.00 55 1005.4
20260505005402 21 217 3.2 11.3 0.00 0.00 0.00 56 1005.4
20260505005304 21 269 0.0 11.3 0.00 0.00 0.00 55 1005.4
20260505005101 21 173 0.0 11.3 0.00 0.00 0.00 56 1005.4
20260505005002 21 229 0.0 11.3 0.00 0.00 0.00 55 1005.4
20260505004905 21 214 1.6 11.3 0.00 0.00 0.00 55 1005.4
20260505004801 21 185 0.0 12.9 0.00 0.00 0.00 55 1005.4
20260505004701 21 277 0.0 12.9 0.00 0.00 0.00 56 1005.3
20260505004501 21 15 1.6 12.9 0.00 0.00 0.00 55 1005.4
20260505004301 21 211 9.7 9.7 0.00 0.00 0.00 55 1005.4
20260505004204 21 220 1.6 8.0 0.00 0.00 0.00 55 1005.4
20260505004103 21 165 1.6 8.0 0.00 0.00 0.00 55 1005.4
20260505004003 21 232 3.2 8.0 0.00 0.00 0.00 55 1005.4
20260505003902 21 280 3.2 8.0 0.00 0.00 0.00 55 1005.4
20260505003801 21 157 0.0 8.0 0.00 0.00 0.00 55 1005.3
20260505003602 21 157 0.0 8.0 0.00 0.00 0.00 55 1005.2
20260505003500 21 309 1.6 8.0 0.00 0.00 0.00 55 1005.2
20260505003401 21 309 1.6 8.0 0.00 0.00 0.00 54 1005.3
20260505003301 21 136 3.2 8.0 0.00 0.00 0.00 55 1005.3
20260505003102 21 197 4.8 6.4 0.00 0.00 0.00 54 1005.2
20260505003001 21 168 1.6 6.4 0.00 0.00 0.00 55 1005.2
20260505002903 21 217 3.2 6.4 0.00 0.00 0.00 54 1005.2
20260505002701 21 105 1.6 6.4 0.00 0.00 0.00 54 1005.3
20260505002603 21 175 4.8 6.4 0.00 0.00 0.00 54 1005.3
20260505002503 21 202 6.4 8.0 0.00 0.00 0.00 54 1005.3
20260505002402 21 189 1.6 8.0 0.00 0.00 0.00 54 1005.3
20260505002301 21 218 3.2 8.0 0.00 0.00 0.00 54 1005.3
20260505002201 21 202 1.6 8.0 0.00 0.00 0.00 53 1005.4
20260505002100 21 138 3.2 8.0 0.00 0.00 0.00 53 1005.3
20260505002002 21 177 3.2 8.0 0.00 0.00 0.00 53 1005.3
20260505001802 21 9 0.0 8.0 0.00 0.00 0.00 53 1005.3
20260505001601 21 225 8.0 8.0 0.00 0.00 0.00 53 1005.3
20260505001502 21 188 3.2 8.0 0.00 0.00 0.00 53 1005.4
20260505001402 22 119 0.0 12.9 0.00 0.00 0.00 53 1005.4
20260505001202 22 144 3.2 12.9 0.00 0.00 0.00 53 1005.4
20260505000901 22 189 4.8 12.9 0.00 0.00 0.00 52 1005.4
20260505000803 22 248 4.8 12.9 0.00 0.00 0.00 52 1005.4
20260505000701 22 266 1.6 12.9 0.00 0.00 0.00 52 1005.4
20260505000501 22 225 4.8 12.9 0.00 0.00 0.00 52 1005.5
20260505000402 22 239 1.6 4.8 0.00 0.00 0.00 52 1005.5
20260505000303 22 260 1.6 4.8 0.00 0.00 0.00 52 1005.5
20260505000200 22 153 0.0 4.8 0.00 0.00 0.00 52 1005.5
20260504235602 22 224 0.0 9.7 0.00 0.00 0.00 51 1005.5
20260504235502 22 168 0.0 9.7 0.00 0.00 0.00 51 1005.6
20260504235400 22 121 1.6 9.7 0.00 0.00 0.00 51 1005.5
20260504235302 22 177 0.0 9.7 0.00 0.00 0.00 50 1005.5
20260504235201 22 175 4.8 9.7 0.00 0.00 0.00 50 1005.5
20260504235103 22 251 3.2 16.1 0.00 0.00 0.00 50 1005.6
20260504235002 22 216 1.6 16.1 0.00 0.00 0.00 50 1005.6
20260504234901 22 237 4.8 16.1 0.00 0.00 0.00 50 1005.6
20260504234800 22 207 0.0 16.1 0.00 0.00 0.00 50 1005.5
20260504234601 22 207 0.0 16.1 0.00 0.00 0.00 50 1005.5
20260504234501 22 206 0.0 16.1 0.00 0.00 0.00 50 1005.5
20260504234301 22 237 1.6 16.1 0.00 0.00 0.00 49 1005.5
20260504234100 22 193 0.0 6.4 0.00 0.00 0.00 49 1005.5
20260504233810 22 212 0.0 6.4 0.00 0.00 0.00 49 1005.7
20260504233702 22 159 0.0 6.4 0.00 0.00 0.00 49 1005.7
20260504233601 22 144 1.6 16.1 0.00 0.00 0.00 49 1005.6
20260504233500 22 237 0.0 16.1 0.00 0.00 0.00 49 1005.7
20260504233401 22 225 0.0 16.1 0.00 0.00 0.00 49 1005.7
20260504233302 22 188 1.6 16.1 0.00 0.00 0.00 48 1005.7
20260504233202 22 213 6.4 16.1 0.00 0.00 0.00 48 1005.7
20260504233003 22 176 0.0 16.1 0.00 0.00 0.00 48 1005.7
20260504232902 22 234 3.2 16.1 0.00 0.00 0.00 49 1005.7
20260504232802 22 180 1.6 16.1 0.00 0.00 0.00 48 1005.7
20260504232602 23 203 3.2 12.9 0.00 0.00 0.00 48 1005.8
20260504232502 23 224 4.8 12.9 0.00 0.00 0.00 47 1005.8
20260504232401 23 198 4.8 12.9 0.00 0.00 0.00 47 1005.7
20260504232304 23 236 3.2 16.1 0.00 0.00 0.00 47 1005.7
20260504232203 23 182 4.8 16.1 0.00 0.00 0.00 48 1005.8
20260504232101 23 205 4.8 16.1 0.00 0.00 0.00 47 1005.9
20260504231902 23 150 1.6 16.1 0.00 0.00 0.00 48 1005.9
20260504231801 23 68 3.2 16.1 0.00 0.00 0.00 47 1005.9
20260504231701 23 192 3.2 16.1 0.00 0.00 0.00 47 1005.9
20260504231603 23 198 0.0 16.1 0.00 0.00 0.00 47 1005.9
20260504231501 23 230 4.8 16.1 0.00 0.00 0.00 46 1005.9
20260504231401 23 159 11.3 16.1 0.00 0.00 0.00 47 1006.0
20260504231301 23 215 0.0 11.3 0.00 0.00 0.00 47 1006.0
20260504231202 23 144 6.4 11.3 0.00 0.00 0.00 47 1006.0
20260504231100 23 323 3.2 11.3 0.00 0.00 0.00 46 1006.0
20260504231000 23 211 3.2 11.3 0.00 0.00 0.00 46 1006.0
20260504230902 23 188 4.8 11.3 0.00 0.00 0.00 47 1006.0
20260504230800 23 241 0.0 16.1 0.00 0.00 0.00 47 1006.0
20260504230601 23 286 6.4 16.1 0.00 0.00 0.00 47 1006.1
20260504230500 23 172 3.2 16.1 0.00 0.00 0.00 47 1006.0
20260504230402 23 257 3.2 22.5 0.00 0.00 0.00 46 1006.0
20260504230301 23 202 6.4 22.5 0.00 0.00 0.00 46 1006.0
20260504230202 23 215 8.0 22.5 0.00 0.00 0.00 46 1006.1
20260504230101 23 242 1.6 22.5 0.00 0.00 0.00 46 1006.1
20260504230005 23 179 6.4 22.5 0.00 0.00 0.00 45 1006.1
20260504225901 23 194 14.5 22.5 0.00 0.00 0.00 46 1006.1
20260504225800 23 161 1.6 22.5 0.00 0.00 0.00 46 1006.0
20260504225601 23 177 8.0 22.5 0.00 0.00 0.00 45 1006.0
20260504225503 23 235 8.0 20.9 0.00 0.00 0.00 45 1006.0
20260504225401 23 190 14.5 16.1 0.00 0.00 0.00 45 1006.1
20260504225301 23 157 3.2 16.1 0.00 0.00 0.00 46 1006.1
20260504225203 23 192 3.2 16.1 0.00 0.00 0.00 46 1006.1
20260504225101 23 213 3.2 17.7 0.00 0.00 0.00 45 1006.0
20260504225001 23 245 0.0 17.7 0.00 0.00 0.00 45 1006.1
20260504224901 23 194 3.2 17.7 0.00 0.00 0.00 45 1006.0
20260504224703 23 211 4.8 17.7 0.00 0.00 0.00 46 1006.1
20260504224602 23 154 4.8 24.1 0.00 0.00 0.00 45 1006.1
20260504224502 23 209 1.6 27.4 0.00 0.00 0.00 45 1006.0
20260504224302 23 202 14.5 27.4 0.00 0.00 0.00 45 1006.0
20260504224201 23 263 4.8 27.4 0.00 0.00 0.00 46 1006.0
20260504224101 23 202 11.3 27.4 0.00 0.00 0.00 45 1006.0
20260504224002 23 167 8.0 27.4 0.00 0.00 0.00 44 1006.0
20260504223902 23 184 4.8 27.4 0.00 0.00 0.00 45 1006.0
20260504223801 23 113 12.9 27.4 0.00 0.00 0.00 45 1006.0
20260504223701 23 159 9.7 27.4 0.00 0.00 0.00 45 1006.0
20260504223603 23 97 9.7 20.9 0.00 0.00 0.00 46 1006.0
20260504223501 23 163 9.7 20.9 0.00 0.00 0.00 45 1006.0
20260504223401 23 190 3.2 20.9 0.00 0.00 0.00 45 1006.0
20260504223301 23 337 1.6 27.4 0.00 0.00 0.00 46 1006.1
20260504223202 23 313 6.4 27.4 0.00 0.00 0.00 45 1006.1
20260504223100 23 140 4.8 27.4 0.00 0.00 0.00 45 1006.1
20260504223002 23 212 11.3 27.4 0.00 0.00 0.00 45 1006.1
20260504222903 23 217 8.0 27.4 0.00 0.00 0.00 45 1006.1
20260504222701 23 190 6.4 32.2 0.00 0.00 0.00 45 1006.1
20260504222602 23 28 8.0 32.2 0.00 0.00 0.00 45 1006.1
20260504222501 23 217 16.1 32.2 0.00 0.00 0.00 44 1006.2
20260504222402 23 217 11.3 32.2 0.00 0.00 0.00 45 1006.2
20260504222301 23 323 9.7 32.2 0.00 0.00 0.00 45 1006.3
20260504222104 23 202 12.9 32.2 0.00 0.00 0.00 45 1006.2
20260504222003 23 228 6.4 32.2 0.00 0.00 0.00 44 1006.2
20260504221902 23 125 4.8 25.7 0.00 0.00 0.00 44 1006.2
20260504221800 23 185 11.3 25.7 0.00 0.00 0.00 45 1006.1
20260504221702 23 209 9.7 25.7 0.00 0.00 0.00 44 1006.1
20260504221602 23 188 4.8 25.7 0.00 0.00 0.00 44 1006.1
20260504221502 24 113 1.6 25.7 0.00 0.00 0.00 44 1006.1
20260504221401 24 181 12.9 25.7 0.00 0.00 0.00 44 1006.2
20260504221301 24 218 9.7 25.7 0.00 0.00 0.00 44 1006.2
20260504221201 24 223 8.0 22.5 0.00 0.00 0.00 45 1006.1
20260504221102 24 167 8.0 22.5 0.00 0.00 0.00 44 1006.1
20260504221004 24 104 4.8 22.5 0.00 0.00 0.00 44 1006.2
20260504220901 24 333 3.2 16.1 0.00 0.00 0.00 45 1006.2
20260504220803 24 225 9.7 16.1 0.00 0.00 0.00 46 1006.0
20260504220702 24 218 6.4 16.1 0.00 0.00 0.00 46 1006.0
20260504220601 24 183 3.2 16.1 0.00 0.00 0.00 46 1006.0
20260504220501 24 250 1.6 16.1 0.00 0.00 0.00 46 1006.0
20260504220401 24 196 4.8 16.1 0.00 0.00 0.00 45 1006.1
20260504220303 24 74 0.0 16.1 0.00 0.00 0.00 46 1006.0
20260504220203 24 219 3.2 16.1 0.00 0.00 0.00 45 1006.0
20260504220101 24 175 16.1 16.1 0.00 0.00 0.00 45 1006.0
20260504220004 24 251 3.2 16.1 0.00 0.00 0.00 45 1006.0
20260504215901 24 27 6.4 19.3 0.00 0.00 0.00 46 1006.0
20260504215801 24 22 4.8 19.3 0.00 0.00 0.00 47 1006.1
20260504215703 24 178 0.0 19.3 0.00 0.00 0.00 45 1006.1
20260504215602 24 171 8.0 20.9 0.00 0.00 0.00 46 1006.1
20260504215501 24 181 6.4 20.9 0.00 0.00 0.00 45 1006.2
20260504215402 24 186 6.4 20.9 0.00 0.00 0.00 47 1006.2
20260504215301 24 229 3.2 20.9 0.00 0.00 0.00 46 1006.1
20260504215202 24 302 11.3 20.9 0.00 0.00 0.00 47 1006.1
20260504215101 23 184 6.4 20.9 0.00 0.00 0.00 46 1006.1
20260504215001 23 189 9.7 20.9 0.00 0.00 0.00 46 1006.1
20260504214703 23 315 3.2 20.9 0.00 0.00 0.00 47 1006.1
20260504214601 23 154 12.9 24.1 0.00 0.00 0.00 49 1006.3
20260504214502 23 161 1.6 14.5 0.00 0.00 0.00 49 1006.3
20260504214402 23 239 3.2 14.5 0.00 0.00 0.00 49 1006.1
20260504214301 23 154 1.6 14.5 0.00 0.00 0.00 49 1006.1
20260504214102 23 180 3.2 14.5 0.00 0.00 0.00 49 1006.1
20260504214002 23 198 1.6 14.5 0.00 0.00 0.00 49 1006.1
20260504213904 23 151 9.7 14.5 0.00 0.00 0.00 50 1006.1
20260504213801 23 108 3.2 6.4 0.00 0.00 0.00 49 1006.2
20260504213701 23 198 3.2 6.4 0.00 0.00 0.00 50 1006.1
20260504213602 23 139 1.6 6.4 0.00 0.00 0.00 50 1006.1
20260504213501 23 202 0.0 3.2 0.00 0.00 0.00 51 1006.3
20260504213401 23 196 0.0 4.8 0.00 0.00 0.00 51 1006.2
20260504213301 23 186 0.0 4.8 0.00 0.00 0.00 50 1006.3
20260504213201 23 178 0.0 4.8 0.00 0.00 0.00 51 1006.2
20260504213002 23 163 0.0 4.8 0.00 0.00 0.00 51 1006.3
20260504212903 23 184 0.0 4.8 0.00 0.00 0.00 52 1006.3
20260504212801 23 148 0.0 4.8 0.00 0.00 0.00 50 1006.4
20260504212701 23 209 3.2 4.8 0.00 0.00 0.00 51 1006.4
20260504212603 23 217 1.6 8.0 0.00 0.00 0.00 51 1006.5
20260504212502 23 208 3.2 8.0 0.00 0.00 0.00 51 1006.4
20260504212203 23 132 0.0 8.0 0.00 0.00 0.00 52 1006.6
20260504212001 23 168 3.2 11.3 0.00 0.00 0.00 51 1006.7
20260504211902 23 217 1.6 11.3 0.00 0.00 0.00 50 1006.7
20260504211803 23 327 0.0 11.3 0.00 0.00 0.00 51 1006.7
20260504211701 23 207 1.6 11.3 0.00 0.00 0.00 50 1006.7
20260504211601 23 290 6.4 11.3 0.00 0.00 0.00 50 1006.7
20260504211504 23 202 4.8 11.3 0.00 0.00 0.00 49 1006.7
20260504211403 23 178 1.6 11.3 0.00 0.00 0.00 50 1006.7
20260504211301 23 159 3.2 11.3 0.00 0.00 0.00 49 1006.9
20260504211201 23 198 6.4 11.3 0.00 0.00 0.00 50 1007.0
20260504211002 23 173 0.0 8.0 0.00 0.00 0.00 49 1007.0
20260504210902 23 276 4.8 8.0 0.00 0.00 0.00 50 1006.9
20260504210801 23 310 1.6 8.0 0.00 0.00 0.00 51 1006.8
20260504210701 23 219 1.6 8.0 0.00 0.00 0.00 50 1006.7
20260504210603 23 300 0.0 8.0 0.00 0.00 0.00 49 1006.7
20260504210502 23 242 0.0 8.0 0.00 0.00 0.00 49 1006.7
20260504210301 24 196 4.8 8.0 0.00 0.00 0.00 49 1006.8
20260504210200 24 203 0.0 4.8 0.00 0.00 0.00 48 1006.8
20260504210101 24 250 0.0 4.8 0.00 0.00 0.00 48 1006.8
20260504210000 24 221 0.0 4.8 0.00 0.00 0.00 49 1006.9
20260504205901 24 153 0.0 8.0 0.00 0.00 0.00 48 1006.9
20260504205801 24 211 0.0 8.0 0.00 0.00 0.00 47 1007.0
20260504205702 24 200 0.0 12.9 0.00 0.00 0.00 48 1007.0
20260504205604 24 267 0.0 12.9 0.00 0.00 0.00 47 1007.0
20260504205501 24 269 0.0 12.9 0.00 0.00 0.00 47 1007.0
20260504205300 24 131 3.2 12.9 0.00 0.00 0.00 47 1007.1
20260504205201 24 303 3.2 12.9 0.00 0.00 0.00 46 1007.1
20260504205100 25 309 4.8 12.9 0.00 0.00 0.00 46 1007.0
20260504204800 25 208 6.4 14.5 0.00 0.00 0.00 47 1007.1
20260504204559 25 250 1.6 11.3 0.00 0.00 0.00 47 1007.0
20260504204500 25 245 0.0 11.3 0.00 0.00 0.00 47 1007.0
20260504204400 25 29 0.0 11.3 0.00 0.00 0.00 46 1007.0
20260504204301 25 113 3.2 11.3 0.00 0.00 0.00 46 1007.0
20260504204201 25 220 3.2 11.3 0.00 0.00 0.00 47 1007.1
20260504204100 25 337 3.2 11.3 0.00 0.00 0.00 47 1007.1
20260504204000 25 150 3.2 8.0 0.00 0.00 0.00 47 1007.1
20260504203900 25 182 3.2 8.0 0.00 0.00 0.00 49 1007.1
20260504203802 25 209 3.2 11.3 0.00 0.00 0.00 46 1007.1
20260504203600 25 280 6.4 11.3 0.00 0.00 0.00 48 1007.1
20260504203400 25 53 3.2 11.3 0.00 0.00 0.00 48 1007.2
20260504203202 25 121 3.2 11.3 0.00 0.00 0.00 47 1007.3
20260504203101 25 304 8.0 11.3 0.00 0.00 0.00 48 1007.2
20260504203000 24 36 4.8 14.5 0.00 0.00 0.00 48 1007.3
20260504202901 24 277 4.8 14.5 0.00 0.00 0.00 48 1007.4
20260504202802 24 193 3.2 14.5 0.00 0.00 0.00 48 1007.3
20260504202701 24 195 3.2 14.5 0.00 0.00 0.00 49 1007.4
20260504202501 24 175 4.8 14.5 0.00 0.00 0.00 51 1007.4
20260504202401 24 205 1.6 14.5 0.00 0.00 0.00 49 1007.3
20260504202200 24 201 4.8 14.5 0.00 0.00 0.00 48 1007.5
20260504202101 24 205 11.3 12.9 0.00 0.00 0.00 53 1007.4
20260504202001 24 342 4.8 11.3 0.00 0.00 0.00 51 1007.4
20260504201902 23 198 1.6 11.3 0.00 0.00 0.00 51 1007.5
20260504201801 23 112 1.6 11.3 0.00 0.00 0.00 53 1007.5
20260504201700 23 216 1.6 11.3 0.00 0.00 0.00 52 1007.6
20260504201501 23 167 8.0 11.3 0.00 0.00 0.00 53 1007.6
20260504201400 23 35 0.0 11.3 0.00 0.00 0.00 53 1007.6
20260504201301 23 246 1.6 11.3 0.00 0.00 0.00 52 1007.6
20260504201200 23 260 11.3 11.3 0.00 0.00 0.00 51 1007.6
20260504201100 23 284 3.2 9.7 0.00 0.00 0.00 50 1007.6
20260504201000 23 199 6.4 9.7 0.00 0.00 0.00 52 1007.6
20260504200900 23 183 3.2 9.7 0.00 0.00 0.00 51 1007.7
20260504200700 23 213 1.6 8.0 0.00 0.00 0.00 52 1007.7
20260504200600 23 270 1.6 8.0 0.00 0.00 0.00 51 1007.8
20260504200400 23 145 4.8 11.3 0.00 0.00 0.00 52 1007.7
20260504200202 23 211 0.0 11.3 0.00 0.00 0.00 51 1007.8
20260504195959 23 211 1.6 11.3 0.00 0.00 0.00 51 1007.8
20260504195900 23 355 1.6 11.3 0.00 0.00 0.00 51 1007.8
20260504195801 23 185 3.2 11.3 0.00 0.00 0.00 50 1007.8
20260504195659 23 150 3.2 11.3 0.00 0.00 0.00 52 1007.8
20260504195459 23 219 8.0 14.5 0.00 0.00 0.00 51 1008.0
20260504195401 23 207 3.2 14.5 0.00 0.00 0.00 51 1007.9
20260504195259 23 258 4.8 14.5 0.00 0.00 0.00 50 1007.8
20260504195159 23 319 8.0 14.5 0.00 0.00 0.00 50 1007.9
20260504195100 23 222 4.8 14.5 0.00 0.00 0.00 50 1007.9
20260504195000 23 186 8.0 14.5 0.00 0.00 0.00 52 1008.0
20260504194902 23 201 0.0 14.5 0.00 0.00 0.00 50 1007.9
20260504194759 23 213 1.6 14.5 0.00 0.00 0.00 51 1007.9
20260504194659 23 182 4.8 14.5 0.00 0.00 0.00 51 1008.0
20260504194500 23 134 3.2 14.5 0.00 0.00 0.00 52 1007.9
20260504194400 23 186 3.2 14.5 0.00 0.00 0.00 52 1008.0
20260504194301 23 134 1.6 14.5 0.00 0.00 0.00 52 1008.0
20260504194100 23 162 1.6 14.5 0.00 0.00 0.00 49 1008.0
20260504193959 23 310 1.6 14.5 0.00 0.00 0.00 49 1008.1
20260504193859 23 173 9.7 16.1 0.00 0.00 0.00 51 1008.2
20260504193800 23 283 6.4 14.5 0.00 0.00 0.00 52 1008.1
20260504193659 23 288 4.8 14.5 0.00 0.00 0.00 51 1008.2
20260504193600 23 298 12.9 14.5 0.00 0.00 0.00 52 1008.2
20260504193500 23 201 6.4 14.5 0.00 0.00 0.00 51 1008.1
20260504193401 23 251 6.4 14.5 0.00 0.00 0.00 52 1008.2
20260504193301 23 223 1.6 14.5 0.00 0.00 0.00 52 1008.3
20260504193100 23 261 4.8 16.1 0.00 0.00 0.00 53 1008.3
20260504192859 23 160 6.4 16.1 0.00 0.00 0.00 52 1008.3
20260504192800 23 298 3.2 16.1 0.00 0.00 0.00 53 1008.3
20260504192700 23 189 3.2 17.7 0.00 0.00 0.00 52 1008.3
20260504192601 23 101 1.6 17.7 0.00 0.00 0.00 52 1008.3
20260504192501 23 331 6.4 17.7 0.00 0.00 0.00 53 1008.3
20260504192359 23 130 3.2 17.7 0.00 0.00 0.00 53 1008.4
20260504192300 23 186 6.4 17.7 0.00 0.00 0.00 53 1008.4
20260504192201 23 32 6.4 17.7 0.00 0.00 0.00 56 1008.4
20260504192000 22 182 0.0 17.7 0.00 0.00 0.00 56 1008.4
20260504191900 22 192 1.6 17.7 0.00 0.00 0.00 54 1008.3
20260504191801 22 316 17.7 17.7 0.00 0.00 0.00 55 1008.4
20260504191700 22 343 1.6 11.3 0.00 0.00 0.00 56 1008.4
20260504191459 22 303 8.0 14.5 0.00 0.00 0.00 56 1008.4
20260504191401 22 204 3.2 14.5 0.00 0.00 0.00 56 1008.4
20260504191300 22 190 3.2 14.5 0.00 0.00 0.00 55 1008.3
20260504191200 22 96 3.2 14.5 0.00 0.00 0.00 57 1008.4
20260504191101 22 249 3.2 14.5 0.00 0.00 0.00 55 1008.5
20260504190959 22 155 0.0 14.5 0.00 0.00 0.00 56 1008.5
20260504190900 22 202 0.0 14.5 0.00 0.00 0.00 55 1008.5
20260504190800 22 163 6.4 14.5 0.00 0.00 0.00 55 1008.5
20260504190659 22 199 8.0 14.5 0.00 0.00 0.00 56 1008.6
20260504190558 22 194 3.2 11.3 0.00 0.00 0.00 56 1008.6
20260504190459 22 201 4.8 17.7 0.00 0.00 0.00 56 1008.6
20260504190400 22 190 3.2 17.7 0.00 0.00 0.00 55 1008.6
20260504190300 22 190 11.3 17.7 0.00 0.00 0.00 56 1008.6
20260504190200 22 180 1.6 17.7 0.00 0.00 0.00 59 1008.7
20260504185800 22 155 4.8 17.7 0.00 0.00 0.00 57 1008.7
20260504185700 22 192 11.3 17.7 0.00 0.00 0.00 56 1008.6
20260504185601 22 259 12.9 20.9 0.00 0.00 0.00 56 1008.7
20260504185459 22 157 16.1 16.1 0.00 0.00 0.00 57 1008.7
20260504185400 22 289 6.4 14.5 0.00 0.00 0.00 57 1008.7
20260504185259 22 238 4.8 14.5 0.00 0.00 0.00 60 1008.7
20260504185201 22 148 1.6 12.9 0.00 0.00 0.00 59 1008.8
20260504185101 21 111 4.8 12.9 0.00 0.00 0.00 58 1008.7
20260504185000 21 168 8.0 12.9 0.00 0.00 0.00 59 1008.8
20260504184800 21 183 3.2 9.7 0.00 0.00 0.00 61 1008.8
20260504184500 21 200 3.2 8.0 0.00 0.00 0.00 62 1008.8
20260504184401 21 205 6.4 8.0 0.00 0.00 0.00 63 1008.8
20260504184259 21 168 0.0 9.7 0.00 0.00 0.00 62 1008.8
20260504184200 21 168 0.0 9.7 0.00 0.00 0.00 61 1008.9
20260504184101 21 171 0.0 9.7 0.00 0.00 0.00 60 1008.9
20260504183759 21 218 0.0 9.7 0.00 0.00 0.00 60 1008.9
20260504183359 21 207 8.0 9.7 0.00 0.00 0.00 61 1008.8
20260504183259 21 228 6.4 9.7 0.00 0.00 0.00 60 1008.8
20260504183159 21 17 1.6 9.7 0.00 0.00 0.00 61 1008.9
20260504183101 21 28 1.6 9.7 0.00 0.00 0.00 60 1008.9
20260504183000 21 122 4.8 9.7 0.00 0.00 0.00 61 1008.9
20260504182759 21 219 4.8 14.5 0.00 0.00 0.00 60 1008.8
20260504182702 21 168 1.6 14.5 0.00 0.00 0.00 60 1008.9
20260504182600 21 211 0.0 14.5 0.00 0.00 0.00 60 1008.9
20260504182459 21 173 11.3 14.5 0.00 0.00 0.00 60 1008.9
20260504182300 21 216 4.8 14.5 0.00 0.00 0.00 60 1008.8
20260504182159 21 305 1.6 14.5 0.00 0.00 0.00 59 1008.8
20260504182059 21 232 3.2 14.5 0.00 0.00 0.00 59 1008.9
20260504182002 21 165 8.0 14.5 0.00 0.00 0.00 59 1008.9
20260504181859 21 275 1.6 14.5 0.00 0.00 0.00 59 1008.9
20260504181800 21 319 3.2 11.3 0.00 0.00 0.00 60 1008.8
20260504181700 21 212 1.6 16.1 0.00 0.00 0.00 60 1008.7
20260504181600 21 213 1.6 16.1 0.00 0.00 0.00 60 1008.7
20260504181401 21 182 4.8 16.1 0.00 0.00 0.00 60 1008.8
20260504181201 21 198 3.2 16.1 0.00 0.00 0.00 59 1008.8
20260504181100 20 210 4.8 17.7 0.00 0.00 0.00 60 1008.7
20260504181000 20 163 3.2 17.7 0.00 0.00 0.00 61 1008.6
20260504180900 20 99 3.2 17.7 0.00 0.00 0.00 61 1008.7
20260504180800 20 187 1.6 17.7 0.00 0.00 0.00 60 1008.7
20260504180659 20 171 6.4 17.7 0.00 0.00 0.00 61 1008.7
20260504180500 20 215 3.2 17.7 0.00 0.00 0.00 60 1008.6
20260504180259 20 153 6.4 19.3 0.00 0.00 0.00 59 1008.6
20260504180201 20 224 6.4 11.3 0.00 0.00 0.00 60 1008.6
20260504175802 20 174 8.0 12.9 0.00 0.00 0.00 61 1008.5
20260504175700 20 235 3.2 12.9 0.00 0.00 0.00 61 1008.5
20260504175601 20 225 4.8 12.9 0.00 0.00 0.00 61 1008.5
20260504175500 20 165 6.4 12.9 0.00 0.00 0.00 62 1008.6
20260504175401 20 348 4.8 12.9 0.00 0.00 0.00 62 1008.5
20260504175259 20 65 1.6 12.9 0.00 0.00 0.00 60 1008.5
20260504175200 20 209 1.6 12.9 0.00 0.00 0.00 61 1008.4
20260504175100 20 151 6.4 12.9 0.00 0.00 0.00 59 1008.5
20260504175000 20 197 9.7 12.9 0.00 0.00 0.00 60 1008.4
20260504174800 20 271 3.2 12.9 0.00 0.00 0.00 59 1008.5
20260504174659 20 225 6.4 14.5 0.00 0.00 0.00 60 1008.5
20260504174601 20 200 1.6 14.5 0.00 0.00 0.00 59 1008.5
20260504174459 20 333 8.0 14.5 0.00 0.00 0.00 60 1008.5
20260504174359 20 191 4.8 14.5 0.00 0.00 0.00 61 1008.4
20260504174159 20 278 3.2 14.5 0.00 0.00 0.00 60 1008.5
20260504174059 20 170 6.4 14.5 0.00 0.00 0.00 59 1008.4
20260504174001 20 170 1.6 14.5 0.00 0.00 0.00 59 1008.4
20260504173902 20 209 3.2 17.7 0.00 0.00 0.00 59 1008.5
20260504173659 20 179 4.8 17.7 0.00 0.00 0.00 58 1008.6
20260504173601 20 165 6.4 17.7 0.00 0.00 0.00 61 1008.5
20260504173400 20 158 3.2 17.7 0.00 0.00 0.00 60 1008.5
20260504173200 20 186 9.7 17.7 0.00 0.00 0.00 62 1008.5
20260504173000 20 286 9.7 12.9 0.00 0.00 0.00 62 1008.4
20260504172901 20 195 1.6 12.9 0.00 0.00 0.00 62 1008.5
20260504172800 20 230 1.6 12.9 0.00 0.00 0.00 61 1008.5
20260504172700 20 213 6.4 12.9 0.00 0.00 0.00 60 1008.6
20260504172601 20 134 3.2 12.9 0.00 0.00 0.00 60 1008.6
20260504172500 20 190 4.8 12.9 0.00 0.00 0.00 59 1008.6
20260504172401 20 218 3.2 12.9 0.00 0.00 0.00 59 1008.6
20260504172301 20 155 3.2 12.9 0.00 0.00 0.00 58 1008.6
20260504172159 20 257 0.0 12.9 0.00 0.00 0.00 58 1008.5
20260504172100 20 322 3.2 12.9 0.00 0.00 0.00 60 1008.6
20260504172001 20 200 3.2 9.7 0.00 0.00 0.00 61 1008.6
20260504171859 20 156 0.0 9.7 0.00 0.00 0.00 59 1008.5
20260504171802 20 129 3.2 12.9 0.00 0.00 0.00 60 1008.6
20260504171659 20 238 3.2 12.9 0.00 0.00 0.00 61 1008.5
20260504171559 20 143 3.2 12.9 0.00 0.00 0.00 61 1008.5
20260504171500 20 286 4.8 12.9 0.00 0.00 0.00 61 1008.5
20260504171359 20 235 6.4 12.9 0.00 0.00 0.00 61 1008.6
20260504171259 19 128 1.6 12.9 0.00 0.00 0.00 61 1008.6
20260504171201 19 155 4.8 12.9 0.00 0.00 0.00 61 1008.6
20260504171100 19 162 1.6 12.9 0.00 0.00 0.00 60 1008.6
20260504170959 20 178 6.4 12.9 0.00 0.00 0.00 60 1008.6
20260504170900 20 327 12.9 12.9 0.00 0.00 0.00 60 1008.5
20260504170800 20 246 6.4 12.9 0.00 0.00 0.00 60 1008.4
20260504170700 20 179 1.6 11.3 0.00 0.00 0.00 59 1008.5
20260504170559 20 207 6.4 11.3 0.00 0.00 0.00 59 1008.5
20260504170500 20 301 6.4 12.9 0.00 0.00 0.00 59 1008.5
20260504170359 20 202 1.6 11.3 0.00 0.00 0.00 59 1008.4
20260504170300 20 173 3.2 11.3 0.00 0.00 0.00 58 1008.4
20260504170201 20 290 3.2 11.3 0.00 0.00 0.00 59 1008.4
20260504160400 20 138 12.9 12.9 0.00 0.00 0.00 62 1009.2
20260504160300 20 355 0.0 9.7 0.00 0.00 0.00 62 1009.1
20260504160201 20 298 3.2 9.7 0.00 0.00 0.00 60 1009.1
20260504151101 18 244 0.0 9.7 0.00 0.00 0.00 63 1009.1
20260504151000 18 265 1.6 9.7 0.00 0.00 0.00 64 1009.1
20260504150859 18 211 3.2 9.7 0.00 0.00 0.00 63 1009.0
20260504150800 18 277 1.6 9.7 0.00 0.00 0.00 65 1009.1
20260504150700 18 283 0.0 9.7 0.00 0.00 0.00 64 1009.2
20260504150601 18 281 3.2 9.7 0.00 0.00 0.00 64 1009.1
20260504150300 17 188 3.2 16.1 0.00 0.00 0.00 62 1009.0
20260504150201 17 179 3.2 16.1 0.00 0.00 0.00 66 1009.0
20260504141300 16 134 0.0 6.4 0.00 0.00 0.00 66 1008.9
20260504141200 16 219 0.0 6.4 0.00 0.00 0.00 66 1009.1
20260504141101 16 144 3.2 6.4 0.00 0.00 0.00 66 1009.1
20260504141000 16 196 0.0 6.4 0.00 0.00 0.00 67 1009.1
20260504140902 16 214 0.0 6.4 0.00 0.00 0.00 66 1009.1
20260504140800 16 265 0.0 6.4 0.00 0.00 0.00 66 1009.1
20260504140701 16 317 0.0 6.4 0.00 0.00 0.00 66 1009.0
20260504140600 16 179 3.2 6.4 0.00 0.00 0.00 66 1009.1
20260504140500 15 146 0.0 8.0 0.00 0.00 0.00 67 1009.1
20260504140400 15 339 1.6 8.0 0.00 0.00 0.00 67 1009.0
20260504140301 15 63 3.2 8.0 0.00 0.00 0.00 66 1009.0
20260504140200 15 139 1.6 9.7 0.00 0.00 0.00 66 1009.1
20260504130759 13 262 3.2 9.7 0.00 0.00 0.00 71 1009.8
20260504130559 13 191 1.6 9.7 0.00 0.00 0.00 71 1009.8
20260504130500 13 206 0.0 9.7 0.00 0.00 0.00 70 1009.8
20260504130359 13 118 4.8 8.0 0.00 0.00 0.00 71 1009.9
20260504130259 12 132 1.6 8.0 0.00 0.00 0.00 70 1009.8
20260504130201 12 153 1.6 8.0 0.00 0.00 0.00 70 1009.9
20260504120259 12 181 0.0 8.0 0.00 0.00 0.00 70 1009.9
20260504120202 12 71 1.6 8.0 0.00 0.00 0.00 70 1009.8